Time,TemperatureF,DewpointF,PressureIn,WindDirection,WindDirectionDegrees,WindSpeedMPH,WindSpeedGustMPH,Humidity,HourlyPrecipIn,Conditions,Clouds,dailyrainin,SoftwareType,DateUTC
2013-08-29 00:00:00,64.1,63.5,29.97,North,355,0.0,0.0,98,0.06,,,2.51,Wunderground v.1.15,2013-08-29 04:00:00,
2013-08-29 00:05:00,64.1,63.5,29.97,North,355,0.0,0.0,98,0.06,,,0.00,Wunderground v.1.15,2013-08-29 04:05:00,
2013-08-29 00:15:00,64.1,63.5,29.96,North,355,0.0,0.0,98,0.00,,,0.00,Wunderground v.1.15,2013-08-29 04:15:00,
2013-08-29 00:20:00,64.0,63.4,29.96,North,355,0.0,0.0,98,0.00,,,0.00,Wunderground v.1.15,2013-08-29 04:20:00,
2013-08-29 00:25:00,64.0,63.4,29.96,North,355,0.0,0.0,98,0.00,,,0.00,Wunderground v.1.15,2013-08-29 04:25:00,
2013-08-29 00:30:00,64.0,63.4,29.96,North,355,0.0,0.0,98,0.00,,,0.00,Wunderground v.1.15,2013-08-29 04:30:00,
2013-08-29 00:35:00,63.9,63.3,29.96,North,355,0.0,0.0,98,0.00,,,0.00,Wunderground v.1.15,2013-08-29 04:35:00,
2013-08-29 00:45:00,63.7,63.1,29.96,North,355,0.0,0.0,98,0.00,,,0.00,Wunderground v.1.15,2013-08-29 04:45:00,
2013-08-29 00:50:00,63.7,63.1,29.96,North,355,0.0,0.0,98,0.00,,,0.00,Wunderground v.1.15,2013-08-29 04:50:00,
2013-08-29 01:00:00,63.8,63.2,29.95,North,355,0.0,0.0,98,0.00,,,0.00,Wunderground v.1.15,2013-08-29 05:00:00,
2013-08-29 01:05:00,63.9,63.3,29.95,North,355,0.0,0.0,98,0.00,,,0.00,Wunderground v.1.15,2013-08-29 05:05:00,
2013-08-29 01:15:00,63.9,63.3,29.95,North,355,0.0,0.0,98,0.00,,,0.00,Wunderground v.1.15,2013-08-29 05:15:00,
2013-08-29 01:20:00,63.9,63.3,29.95,North,355,0.0,0.0,98,0.00,,,0.00,Wunderground v.1.15,2013-08-29 05:20:00,
2013-08-29 01:30:00,63.7,63.1,29.95,North,355,0.0,0.0,98,0.00,,,0.00,Wunderground v.1.15,2013-08-29 05:30:00,
2013-08-29 01:35:00,63.7,63.1,29.94,North,355,0.0,0.0,98,0.00,,,0.00,Wunderground v.1.15,2013-08-29 05:35:00,
2013-08-29 01:45:00,63.7,63.1,29.94,North,355,0.0,0.0,98,0.00,,,0.00,Wunderground v.1.15,2013-08-29 05:45:00,
2013-08-29 01:50:00,63.6,63.0,29.95,North,355,0.0,0.0,98,0.00,,,0.00,Wunderground v.1.15,2013-08-29 05:50:00,
2013-08-29 01:55:00,63.6,63.0,29.95,North,355,0.0,0.0,98,0.00,,,0.00,Wunderground v.1.15,2013-08-29 05:55:00,
2013-08-29 02:05:00,63.6,63.0,29.95,North,355,0.0,0.0,98,0.00,,,0.00,Wunderground v.1.15,2013-08-29 06:05:00,
2013-08-29 02:15:00,63.7,63.1,29.95,North,355,0.0,0.0,98,0.00,,,0.00,Wunderground v.1.15,2013-08-29 06:15:00,
2013-08-29 02:20:00,63.6,63.0,29.95,North,355,0.0,0.0,98,0.00,,,0.00,Wunderground v.1.15,2013-08-29 06:20:00,
2013-08-29 02:25:00,63.6,63.0,29.95,North,355,0.0,0.0,98,0.00,,,0.00,Wunderground v.1.15,2013-08-29 06:25:00,
2013-08-29 02:30:00,63.6,63.0,29.94,North,355,0.0,0.0,98,0.00,,,0.00,Wunderground v.1.15,2013-08-29 06:30:00,
2013-08-29 02:35:00,63.5,62.9,29.95,North,355,0.0,0.0,98,0.00,,,0.00,Wunderground v.1.15,2013-08-29 06:35:00,
2013-08-29 02:40:00,63.5,62.9,29.95,North,355,0.0,0.0,98,0.00,,,0.00,Wunderground v.1.15,2013-08-29 06:40:00,
2013-08-29 02:45:00,63.5,62.9,29.95,North,355,0.0,0.0,98,0.00,,,0.00,Wunderground v.1.15,2013-08-29 06:45:00,
2013-08-29 02:55:00,63.5,62.9,29.96,North,355,0.0,0.0,98,0.00,,,0.00,Wunderground v.1.15,2013-08-29 06:55:00,
2013-08-29 03:00:00,63.5,62.9,29.96,North,355,0.0,0.0,98,0.00,,,0.00,Wunderground v.1.15,2013-08-29 07:00:00,
2013-08-29 03:05:00,63.5,63.2,29.96,North,355,0.0,0.0,99,0.00,,,0.00,Wunderground v.1.15,2013-08-29 07:05:00,
2013-08-29 03:15:00,63.5,63.2,29.96,North,355,0.0,0.0,99,0.00,,,0.00,Wunderground v.1.15,2013-08-29 07:15:00,
2013-08-29 03:25:00,63.5,63.2,29.97,North,355,0.0,0.0,99,0.00,,,0.00,Wunderground v.1.15,2013-08-29 07:25:00,
2013-08-29 03:30:00,63.5,63.2,29.97,North,355,0.0,0.0,99,0.00,,,0.00,Wunderground v.1.15,2013-08-29 07:30:00,
2013-08-29 03:35:00,63.5,63.2,29.97,North,355,0.0,0.0,99,0.00,,,0.00,Wunderground v.1.15,2013-08-29 07:35:00,
2013-08-29 03:45:00,63.6,63.3,29.97,North,355,0.0,0.0,99,0.00,,,0.00,Wunderground v.1.15,2013-08-29 07:45:00,
2013-08-29 03:50:00,63.6,63.3,29.97,North,355,0.0,0.0,99,0.00,,,0.00,Wunderground v.1.15,2013-08-29 07:50:00,
2013-08-29 04:00:00,63.6,63.3,29.96,North,355,0.0,0.0,99,0.00,,,0.00,Wunderground v.1.15,2013-08-29 08:00:00,
2013-08-29 04:05:00,63.7,63.4,29.97,North,355,0.0,0.0,99,0.00,,,0.00,Wunderground v.1.15,2013-08-29 08:05:00,
2013-08-29 04:15:00,63.8,63.5,29.97,North,355,0.0,0.0,99,0.00,,,0.00,Wunderground v.1.15,2013-08-29 08:15:00,
2013-08-29 04:20:00,63.8,63.5,29.97,North,355,0.0,0.0,99,0.00,,,0.00,Wunderground v.1.15,2013-08-29 08:20:00,
2013-08-29 04:25:00,63.8,63.5,29.97,North,355,0.0,0.0,99,0.00,,,0.00,Wunderground v.1.15,2013-08-29 08:25:00,
2013-08-29 04:35:00,63.8,63.5,29.97,North,355,0.0,0.0,99,0.00,,,0.00,Wunderground v.1.15,2013-08-29 08:35:00,
2013-08-29 04:40:00,63.8,63.5,29.98,North,355,0.0,0.0,99,0.00,,,0.00,Wunderground v.1.15,2013-08-29 08:40:00,
2013-08-29 04:50:00,63.8,63.5,29.98,North,355,0.0,0.0,99,0.00,,,0.00,Wunderground v.1.15,2013-08-29 08:50:00,
2013-08-29 04:55:00,63.8,63.5,29.98,North,9,0.0,0.0,99,0.00,,,0.00,Wunderground v.1.15,2013-08-29 08:55:00,
2013-08-29 05:00:00,63.9,63.6,29.99,North,9,0.0,0.0,99,0.00,,,0.00,Wunderground v.1.15,2013-08-29 09:00:00,
2013-08-29 05:05:00,64.0,63.7,29.99,North,9,0.0,0.0,99,0.00,,,0.00,Wunderground v.1.15,2013-08-29 09:05:00,
2013-08-29 05:15:00,64.0,63.7,29.99,North,9,0.0,0.0,99,0.00,,,0.00,Wunderground v.1.15,2013-08-29 09:15:00,
2013-08-29 05:25:00,64.0,63.7,30.00,North,9,0.0,0.0,99,0.00,,,0.00,Wunderground v.1.15,2013-08-29 09:25:00,
2013-08-29 05:30:00,63.9,63.6,30.00,ESE,103,0.0,0.0,99,0.00,,,0.00,Wunderground v.1.15,2013-08-29 09:30:00,
2013-08-29 05:40:00,63.9,63.6,30.00,ESE,103,0.0,0.0,99,0.00,,,0.00,Wunderground v.1.15,2013-08-29 09:40:00,
2013-08-29 05:45:00,63.9,63.6,30.01,ESE,103,0.0,0.0,99,0.00,,,0.00,Wunderground v.1.15,2013-08-29 09:45:00,
2013-08-29 05:50:00,63.9,63.6,30.01,ESE,102,0.0,0.0,99,0.00,,,0.00,Wunderground v.1.15,2013-08-29 09:50:00,
2013-08-29 06:00:00,63.9,63.6,30.01,ESE,103,0.0,0.0,99,0.00,,,0.00,Wunderground v.1.15,2013-08-29 10:00:00,
2013-08-29 06:05:00,63.8,63.5,30.01,ESE,103,0.0,0.0,99,0.00,,,0.00,Wunderground v.1.15,2013-08-29 10:05:00,
2013-08-29 06:15:00,63.8,63.5,30.02,ESE,103,0.0,0.0,99,0.00,,,0.00,Wunderground v.1.15,2013-08-29 10:15:00,
2013-08-29 06:20:00,63.8,63.5,30.02,ESE,103,0.0,0.0,99,0.00,,,0.00,Wunderground v.1.15,2013-08-29 10:20:00,
2013-08-29 06:30:00,63.8,63.5,30.02,ESE,102,0.0,0.0,99,0.00,,,0.00,Wunderground v.1.15,2013-08-29 10:30:00,
2013-08-29 06:35:00,63.8,63.5,30.02,ESE,102,0.0,0.0,99,0.00,,,0.00,Wunderground v.1.15,2013-08-29 10:35:00,
2013-08-29 06:45:00,63.9,63.6,30.03,ESE,102,0.0,0.0,99,0.00,,,0.00,Wunderground v.1.15,2013-08-29 10:45:00,
2013-08-29 06:50:00,63.9,63.6,30.03,ESE,103,0.0,0.0,99,0.00,,,0.00,Wunderground v.1.15,2013-08-29 10:50:00,
2013-08-29 06:55:00,63.9,63.6,30.03,East,101,0.0,0.0,99,0.00,,,0.00,Wunderground v.1.15,2013-08-29 10:55:00,
2013-08-29 07:05:00,63.9,63.6,30.04,East,99,0.0,0.0,99,0.00,,,0.00,Wunderground v.1.15,2013-08-29 11:05:00,
2013-08-29 07:15:00,63.9,63.6,30.03,ESE,105,0.0,0.0,99,0.00,,,0.00,Wunderground v.1.15,2013-08-29 11:15:00,
2013-08-29 07:20:00,64.0,63.7,30.03,ESE,105,0.0,0.0,99,0.00,,,0.00,Wunderground v.1.15,2013-08-29 11:20:00,
2013-08-29 07:30:00,64.0,63.7,30.03,NE,37,0.0,0.0,99,0.00,,,0.00,Wunderground v.1.15,2013-08-29 11:30:00,
2013-08-29 07:35:00,64.1,63.8,30.03,NNE,27,0.0,0.0,99,0.00,,,0.00,Wunderground v.1.15,2013-08-29 11:35:00,
2013-08-29 07:40:00,64.2,63.9,30.04,NNE,25,0.0,0.0,99,0.00,,,0.00,Wunderground v.1.15,2013-08-29 11:40:00,
2013-08-29 07:50:00,64.4,64.1,30.04,NNE,25,0.0,0.0,99,0.00,,,0.00,Wunderground v.1.15,2013-08-29 11:50:00,
2013-08-29 07:55:00,64.6,64.3,30.04,NNE,25,0.0,0.0,99,0.00,,,0.00,Wunderground v.1.15,2013-08-29 11:55:00,
2013-08-29 08:00:00,64.7,64.4,30.04,NNE,25,0.0,0.0,99,0.00,,,0.00,Wunderground v.1.15,2013-08-29 12:00:00,
2013-08-29 08:10:00,64.6,64.3,30.04,NNE,25,0.0,0.0,99,0.00,,,0.00,Wunderground v.1.15,2013-08-29 12:10:00,
2013-08-29 08:15:00,64.7,64.4,30.05,NNE,25,0.0,0.0,99,0.00,,,0.00,Wunderground v.1.15,2013-08-29 12:15:00,
2013-08-29 08:25:00,64.8,64.5,30.05,NNE,25,0.0,0.0,99,0.00,,,0.00,Wunderground v.1.15,2013-08-29 12:25:00,
2013-08-29 08:30:00,64.8,64.5,30.05,NNE,25,0.0,0.0,99,0.00,,,0.00,Wunderground v.1.15,2013-08-29 12:30:00,
2013-08-29 08:40:00,64.8,64.5,30.05,NNE,25,0.0,0.0,99,0.00,,,0.00,Wunderground v.1.15,2013-08-29 12:40:00,
2013-08-29 08:45:00,64.8,64.2,30.05,NNE,25,0.0,0.0,98,0.00,,,0.00,Wunderground v.1.15,2013-08-29 12:45:00,
2013-08-29 08:50:00,64.8,64.2,30.05,NNE,25,0.0,0.0,98,0.00,,,0.00,Wunderground v.1.15,2013-08-29 12:50:00,
2013-08-29 09:00:00,65.1,64.5,30.05,NNE,25,0.0,0.0,98,0.00,,,0.00,Wunderground v.1.15,2013-08-29 13:00:00,
2013-08-29 09:05:00,65.2,64.6,30.05,NNE,25,0.0,0.0,98,0.00,,,0.00,Wunderground v.1.15,2013-08-29 13:05:00,
2013-08-29 09:15:00,65.3,65.0,30.06,NNE,25,0.0,0.0,99,0.00,,,0.00,Wunderground v.1.15,2013-08-29 13:15:00,
2013-08-29 09:20:00,65.5,65.2,30.06,NNE,25,0.0,0.0,99,0.00,,,0.00,Wunderground v.1.15,2013-08-29 13:20:00,
2013-08-29 09:25:00,65.6,65.3,30.06,NNE,25,0.0,0.0,99,0.00,,,0.00,Wunderground v.1.15,2013-08-29 13:25:00,
2013-08-29 09:35:00,65.9,65.6,30.06,NNE,25,0.0,0.0,99,0.00,,,0.00,Wunderground v.1.15,2013-08-29 13:35:00,
2013-08-29 09:40:00,65.9,65.3,30.05,NNE,25,0.0,0.0,98,0.00,,,0.00,Wunderground v.1.15,2013-08-29 13:40:00,
2013-08-29 09:50:00,66.0,65.4,30.06,ESE,107,0.0,0.0,98,0.00,,,0.00,Wunderground v.1.15,2013-08-29 13:50:00,
2013-08-29 09:55:00,65.5,64.6,30.06,ENE,57,0.0,1.0,97,0.00,,,0.00,Wunderground v.1.15,2013-08-29 13:55:00,
2013-08-29 10:00:00,65.4,64.5,30.06,ENE,69,0.0,0.0,97,0.00,,,0.00,Wunderground v.1.15,2013-08-29 14:00:00,
2013-08-29 10:05:00,65.2,64.3,30.06,NE,42,0.0,0.0,97,0.00,,,0.00,Wunderground v.1.15,2013-08-29 14:05:00,
2013-08-29 10:15:00,65.2,64.3,30.06,ENE,73,0.0,2.0,97,0.00,,,0.00,Wunderground v.1.15,2013-08-29 14:15:00,
2013-08-29 10:25:00,65.2,64.0,30.07,NE,44,1.0,1.0,96,0.00,,,0.00,Wunderground v.1.15,2013-08-29 14:25:00,
2013-08-29 10:30:00,65.4,63.9,30.07,NE,49,1.0,1.0,95,0.00,,,0.00,Wunderground v.1.15,2013-08-29 14:30:00,
2013-08-29 10:35:00,65.4,63.6,30.07,NNE,32,1.0,1.0,94,0.00,,,0.00,Wunderground v.1.15,2013-08-29 14:35:00,
2013-08-29 10:45:00,65.5,63.7,30.06,SE,133,0.0,1.0,94,0.00,,,0.00,Wunderground v.1.15,2013-08-29 14:45:00,
2013-08-29 10:50:00,65.8,63.7,30.07,NE,53,0.0,1.0,93,0.00,,,0.00,Wunderground v.1.15,2013-08-29 14:50:00,
2013-08-29 10:55:00,65.9,63.5,30.07,ESE,106,1.0,1.0,92,0.00,,,0.00,Wunderground v.1.15,2013-08-29 14:55:00,
2013-08-29 11:05:00,65.8,63.1,30.06,South,174,0.0,1.0,91,0.00,,,0.00,Wunderground v.1.15,2013-08-29 15:05:00,
2013-08-29 11:15:00,65.9,63.5,30.06,South,178,0.0,1.0,92,0.00,,,0.00,Wunderground v.1.15,2013-08-29 15:15:00,
2013-08-29 11:20:00,66.1,63.4,30.06,South,177,0.0,1.0,91,0.00,,,0.00,Wunderground v.1.15,2013-08-29 15:20:00,
2013-08-29 11:25:00,66.1,63.4,30.07,SSE,163,1.0,3.0,91,0.00,,,0.00,Wunderground v.1.15,2013-08-29 15:25:00,
2013-08-29 11:35:00,65.9,63.2,30.07,SSE,163,0.0,1.0,91,0.00,,,0.01,Wunderground v.1.15,2013-08-29 15:35:00,
2013-08-29 11:40:00,65.9,63.5,30.07,SSE,164,0.0,0.0,92,0.00,,,0.01,Wunderground v.1.15,2013-08-29 15:40:00,
2013-08-29 11:50:00,66.1,63.4,30.06,South,187,0.0,1.0,91,0.00,,,0.01,Wunderground v.1.15,2013-08-29 15:50:00,
2013-08-29 11:55:00,66.0,63.3,30.06,SSE,161,1.0,1.0,91,0.00,,,0.01,Wunderground v.1.15,2013-08-29 15:55:00,
2013-08-29 12:00:00,66.2,64.1,30.06,SSE,161,0.0,0.0,93,0.00,,,0.01,Wunderground v.1.15,2013-08-29 16:00:00,
2013-08-29 12:05:00,66.6,64.5,30.06,SSE,161,0.0,0.0,93,0.00,,,0.01,Wunderground v.1.15,2013-08-29 16:05:00,
2013-08-29 12:15:00,66.5,63.5,30.06,South,169,0.0,0.0,90,0.00,,,0.01,Wunderground v.1.15,2013-08-29 16:15:00,
2013-08-29 12:25:00,66.4,63.4,30.06,SSE,161,0.0,0.0,90,0.00,,,0.01,Wunderground v.1.15,2013-08-29 16:25:00,
2013-08-29 12:30:00,66.5,64.1,30.06,SSW,205,0.0,2.0,92,0.00,,,0.01,Wunderground v.1.15,2013-08-29 16:30:00,
2013-08-29 12:35:00,66.4,63.7,30.06,SSW,193,0.0,2.0,91,0.00,,,0.01,Wunderground v.1.15,2013-08-29 16:35:00,
2013-08-29 12:45:00,66.2,63.5,30.06,South,178,0.0,1.0,91,0.00,,,0.01,Wunderground v.1.15,2013-08-29 16:45:00,
2013-08-29 12:50:00,66.1,63.4,30.06,SSE,168,0.0,0.0,91,0.00,,,0.01,Wunderground v.1.15,2013-08-29 16:50:00,
2013-08-29 13:00:00,66.1,63.4,30.06,NNE,28,0.0,0.0,91,0.00,,,0.01,Wunderground v.1.15,2013-08-29 17:00:00,
2013-08-29 13:05:00,66.1,63.4,30.06,NNE,31,0.0,0.0,91,0.00,,,0.01,Wunderground v.1.15,2013-08-29 17:05:00,
2013-08-29 13:15:00,66.0,63.3,30.06,ESE,109,0.0,1.0,91,0.00,,,0.01,Wunderground v.1.15,2013-08-29 17:15:00,
2013-08-29 13:20:00,66.0,63.6,30.06,SE,146,0.0,1.0,92,0.00,,,0.01,Wunderground v.1.15,2013-08-29 17:20:00,
2013-08-29 13:30:00,65.5,63.1,30.06,SE,146,1.0,1.0,92,0.00,,,0.01,Wunderground v.1.15,2013-08-29 17:30:00,
2013-08-29 13:35:00,65.3,63.2,30.06,South,173,1.0,1.0,93,0.00,,,0.01,Wunderground v.1.15,2013-08-29 17:35:00,
2013-08-29 13:45:00,65.1,63.0,30.06,SSE,167,0.0,2.0,93,0.00,,,0.01,Wunderground v.1.15,2013-08-29 17:45:00,
2013-08-29 13:50:00,65.0,62.9,30.05,South,172,0.0,0.0,93,0.00,,,0.01,Wunderground v.1.15,2013-08-29 17:50:00,
2013-08-29 13:55:00,64.9,62.8,30.05,South,172,0.0,0.0,93,0.00,,,0.01,Wunderground v.1.15,2013-08-29 17:55:00,
2013-08-29 14:05:00,64.8,63.0,30.05,South,182,0.0,1.0,94,0.00,,,0.01,Wunderground v.1.15,2013-08-29 18:05:00,
2013-08-29 14:15:00,64.6,62.8,30.05,SSE,150,1.0,1.0,94,0.00,,,0.01,Wunderground v.1.15,2013-08-29 18:15:00,
2013-08-29 14:20:00,64.4,62.3,30.05,SSE,153,1.0,1.0,93,0.00,,,0.01,Wunderground v.1.15,2013-08-29 18:20:00,
2013-08-29 14:25:00,64.3,62.5,30.05,SSE,152,0.0,1.0,94,0.00,,,0.01,Wunderground v.1.15,2013-08-29 18:25:00,
2013-08-29 14:30:00,64.3,62.5,30.05,SSE,152,0.0,0.0,94,0.00,,,0.01,Wunderground v.1.15,2013-08-29 18:30:00,
2013-08-29 14:40:00,64.4,62.3,30.05,SSE,152,0.0,0.0,93,0.00,,,0.01,Wunderground v.1.15,2013-08-29 18:40:00,
2013-08-29 14:45:00,64.5,62.4,30.04,SSE,152,0.0,0.0,93,0.00,,,0.01,Wunderground v.1.15,2013-08-29 18:45:00,
2013-08-29 14:55:00,64.7,62.9,30.05,South,190,0.0,3.0,94,0.00,,,0.01,Wunderground v.1.15,2013-08-29 18:55:00,
2013-08-29 15:00:00,64.5,62.7,30.05,SSW,196,1.0,1.0,94,0.00,,,0.01,Wunderground v.1.15,2013-08-29 19:00:00,
2013-08-29 15:10:00,64.4,62.9,30.05,SW,229,0.0,0.0,95,0.00,,,0.01,Wunderground v.1.15,2013-08-29 19:10:00,
2013-08-29 15:15:00,64.3,62.8,30.05,SW,229,0.0,0.0,95,0.00,,,0.01,Wunderground v.1.15,2013-08-29 19:15:00,
2013-08-29 15:25:00,64.2,62.7,30.05,SW,217,0.0,1.0,95,0.00,,,0.01,Wunderground v.1.15,2013-08-29 19:25:00,
2013-08-29 15:30:00,64.1,62.6,30.04,SW,217,0.0,1.0,95,0.00,,,0.01,Wunderground v.1.15,2013-08-29 19:30:00,
2013-08-29 15:40:00,64.1,62.6,30.05,SW,217,0.0,0.0,95,0.00,,,0.01,Wunderground v.1.15,2013-08-29 19:40:00,
2013-08-29 15:45:00,64.0,62.8,30.05,SW,217,0.0,1.0,96,0.00,,,0.01,Wunderground v.1.15,2013-08-29 19:45:00,
2013-08-29 15:50:00,64.0,62.8,30.05,SW,217,0.0,0.0,96,0.00,,,0.01,Wunderground v.1.15,2013-08-29 19:50:00,
2013-08-29 16:00:00,63.9,62.7,30.05,SSW,205,0.0,0.0,96,0.00,,,0.01,Wunderground v.1.15,2013-08-29 20:00:00,
2013-08-29 16:05:00,63.8,62.6,30.05,SSW,205,0.0,0.0,96,0.00,,,0.01,Wunderground v.1.15,2013-08-29 20:05:00,
2013-08-29 16:15:00,64.0,63.1,30.04,SW,217,0.0,2.0,97,0.00,,,0.02,Wunderground v.1.15,2013-08-29 20:15:00,
2013-08-29 16:20:00,64.2,63.3,30.04,SSW,199,1.0,1.0,97,0.00,,,0.02,Wunderground v.1.15,2013-08-29 20:20:00,
2013-08-29 16:25:00,64.3,63.4,30.04,SW,219,1.0,4.0,97,0.00,,,0.02,Wunderground v.1.15,2013-08-29 20:25:00,
2013-08-29 16:35:00,63.9,62.7,30.04,SSE,165,1.0,1.0,96,0.00,,,0.02,Wunderground v.1.15,2013-08-29 20:35:00,
2013-08-29 16:40:00,63.7,62.5,30.04,SSW,202,1.0,1.0,96,0.00,,,0.02,Wunderground v.1.15,2013-08-29 20:40:00,
2013-08-29 16:50:00,63.6,62.4,30.04,South,183,1.0,1.0,96,0.00,,,0.03,Wunderground v.1.15,2013-08-29 20:50:00,
2013-08-29 16:55:00,63.5,62.3,30.04,SW,219,1.0,2.0,96,0.00,,,0.03,Wunderground v.1.15,2013-08-29 20:55:00,
2013-08-29 17:05:00,63.3,62.1,30.04,SW,221,0.0,1.0,96,0.00,,,0.03,Wunderground v.1.15,2013-08-29 21:05:00,
2013-08-29 17:15:00,63.2,62.0,30.04,SSW,207,0.0,0.0,96,0.00,,,0.03,Wunderground v.1.15,2013-08-29 21:15:00,
2013-08-29 17:20:00,63.2,62.0,30.04,SSW,207,0.0,0.0,96,0.00,,,0.03,Wunderground v.1.15,2013-08-29 21:20:00,
2013-08-29 17:25:00,63.2,62.0,30.04,SSW,206,0.0,0.0,96,0.00,,,0.03,Wunderground v.1.15,2013-08-29 21:25:00,
2013-08-29 17:35:00,63.2,62.0,30.04,SSW,206,0.0,0.0,96,0.00,,,0.03,Wunderground v.1.15,2013-08-29 21:35:00,
2013-08-29 17:40:00,63.3,62.1,30.04,SSW,207,0.0,0.0,96,0.00,,,0.03,Wunderground v.1.15,2013-08-29 21:40:00,
2013-08-29 17:45:00,63.3,62.1,30.04,SSW,207,0.0,0.0,96,0.00,,,0.03,Wunderground v.1.15,2013-08-29 21:45:00,
2013-08-29 17:55:00,63.2,62.0,30.04,SSW,206,0.0,0.0,96,0.00,,,0.03,Wunderground v.1.15,2013-08-29 21:55:00,
2013-08-29 18:00:00,62.9,61.7,30.04,SSE,160,1.0,1.0,96,0.00,,,0.03,Wunderground v.1.15,2013-08-29 22:00:00,
2013-08-29 18:05:00,62.8,61.6,30.04,South,186,1.0,1.0,96,0.00,,,0.03,Wunderground v.1.15,2013-08-29 22:05:00,
2013-08-29 18:15:00,62.6,61.4,30.03,South,186,0.0,0.0,96,0.00,,,0.03,Wunderground v.1.15,2013-08-29 22:15:00,
2013-08-29 18:25:00,62.5,61.6,30.03,South,186,0.0,1.0,97,0.00,,,0.03,Wunderground v.1.15,2013-08-29 22:25:00,
2013-08-29 18:30:00,62.3,61.1,30.04,South,186,0.0,0.0,96,0.00,,,0.03,Wunderground v.1.15,2013-08-29 22:30:00,
2013-08-29 18:40:00,62.2,61.3,30.04,South,184,0.0,0.0,97,0.00,,,0.03,Wunderground v.1.15,2013-08-29 22:40:00,
2013-08-29 18:45:00,62.2,61.3,30.04,SSW,196,0.0,0.0,97,0.00,,,0.03,Wunderground v.1.15,2013-08-29 22:45:00,
2013-08-29 18:50:00,62.2,61.3,30.04,SSW,196,0.0,1.0,97,0.00,,,0.03,Wunderground v.1.15,2013-08-29 22:50:00,
2013-08-29 19:00:00,62.3,61.4,30.04,SSW,195,0.0,1.0,97,0.00,,,0.03,Wunderground v.1.15,2013-08-29 23:00:00,
2013-08-29 19:05:00,62.2,61.3,30.05,SSW,200,0.0,1.0,97,0.00,,,0.03,Wunderground v.1.15,2013-08-29 23:05:00,
2013-08-29 19:15:00,62.2,61.3,30.04,SSW,200,0.0,0.0,97,0.00,,,0.03,Wunderground v.1.15,2013-08-29 23:15:00,
2013-08-29 19:25:00,62.0,61.1,30.03,SSW,200,0.0,0.0,97,0.00,,,0.03,Wunderground v.1.15,2013-08-29 23:25:00,
2013-08-29 19:31:00,62.0,61.1,30.03,SSW,200,0.0,0.0,97,0.00,,,0.03,Wunderground v.1.15,2013-08-29 23:31:00,
2013-08-29 19:40:00,62.0,61.1,30.04,SSW,200,0.0,1.0,97,0.00,,,0.03,Wunderground v.1.15,2013-08-29 23:40:00,
2013-08-29 19:45:00,62.0,61.1,30.04,SSW,200,0.0,1.0,97,0.00,,,0.03,Wunderground v.1.15,2013-08-29 23:45:00,
2013-08-29 19:50:00,61.9,61.0,30.04,SSW,200,0.0,0.0,97,0.00,,,0.03,Wunderground v.1.15,2013-08-29 23:50:00,
2013-08-29 20:00:00,61.9,61.0,30.04,SSW,200,0.0,0.0,97,0.00,,,0.03,Wunderground v.1.15,2013-08-30 00:00:00,
2013-08-29 20:05:00,61.9,61.0,30.04,SSW,200,0.0,0.0,97,0.00,,,0.03,Wunderground v.1.15,2013-08-30 00:05:00,
2013-08-29 20:15:00,61.9,61.0,30.04,SSW,200,0.0,0.0,97,0.00,,,0.03,Wunderground v.1.15,2013-08-30 00:15:00,
2013-08-29 20:25:00,61.9,61.0,30.05,SSW,200,0.0,0.0,97,0.00,,,0.03,Wunderground v.1.15,2013-08-30 00:25:00,
2013-08-29 20:30:00,61.9,61.0,30.05,SSW,200,0.0,0.0,97,0.00,,,0.03,Wunderground v.1.15,2013-08-30 00:30:00,
2013-08-29 20:35:00,61.9,61.0,30.05,SSW,200,0.0,0.0,97,0.00,,,0.03,Wunderground v.1.15,2013-08-30 00:35:00,
2013-08-29 20:45:00,61.9,61.0,30.06,SSW,200,0.0,0.0,97,0.00,,,0.03,Wunderground v.1.15,2013-08-30 00:45:00,
2013-08-29 20:50:00,61.9,61.0,30.06,SSW,200,0.0,0.0,97,0.00,,,0.03,Wunderground v.1.15,2013-08-30 00:50:00,
2013-08-29 21:00:00,61.9,61.0,30.06,SSW,200,0.0,0.0,97,0.00,,,0.03,Wunderground v.1.15,2013-08-30 01:00:00,
2013-08-29 21:05:00,61.9,61.0,30.05,SSW,200,0.0,0.0,97,0.00,,,0.03,Wunderground v.1.15,2013-08-30 01:05:00,
2013-08-29 21:15:00,61.9,61.0,30.05,SSW,200,0.0,0.0,97,0.00,,,0.03,Wunderground v.1.15,2013-08-30 01:15:00,
2013-08-29 21:20:00,61.9,61.0,30.05,SSW,200,0.0,0.0,97,0.00,,,0.03,Wunderground v.1.15,2013-08-30 01:20:00,
2013-08-29 21:25:00,61.9,61.0,30.05,SSW,200,0.0,0.0,97,0.00,,,0.03,Wunderground v.1.15,2013-08-30 01:25:00,
2013-08-29 21:35:00,61.8,60.9,30.05,SSW,201,0.0,0.0,97,0.00,,,0.03,Wunderground v.1.15,2013-08-30 01:35:00,
2013-08-29 21:40:00,61.9,61.0,30.04,SSW,201,0.0,0.0,97,0.00,,,0.03,Wunderground v.1.15,2013-08-30 01:40:00,
2013-08-29 21:50:00,61.9,61.0,30.04,SSW,201,0.0,0.0,97,0.00,,,0.03,Wunderground v.1.15,2013-08-30 01:50:00,
2013-08-29 21:55:00,61.8,60.9,30.04,SSW,201,0.0,0.0,97,0.00,,,0.03,Wunderground v.1.15,2013-08-30 01:55:00,
2013-08-29 22:00:00,61.8,60.9,30.03,SSW,201,0.0,0.0,97,0.00,,,0.03,Wunderground v.1.15,2013-08-30 02:00:00,
2013-08-29 22:05:00,61.8,60.9,30.03,SSW,201,0.0,0.0,97,0.00,,,0.03,Wunderground v.1.15,2013-08-30 02:05:00,
2013-08-29 22:15:00,61.9,61.0,30.03,SSW,201,0.0,0.0,97,0.00,,,0.03,Wunderground v.1.15,2013-08-30 02:15:00,
2013-08-29 22:20:00,61.8,60.9,30.03,SSW,200,0.0,0.0,97,0.00,,,0.03,Wunderground v.1.15,2013-08-30 02:20:00,
2013-08-29 22:25:00,61.8,60.9,30.03,SSW,200,0.0,0.0,97,0.00,,,0.03,Wunderground v.1.15,2013-08-30 02:25:00,
2013-08-29 22:30:00,61.8,60.9,30.03,SSW,200,0.0,0.0,97,0.00,,,0.03,Wunderground v.1.15,2013-08-30 02:30:00,
2013-08-29 22:40:00,61.7,60.5,30.03,SSW,201,0.0,0.0,96,0.00,,,0.03,Wunderground v.1.15,2013-08-30 02:40:00,
2013-08-29 22:45:00,61.6,60.7,30.03,SSW,201,0.0,0.0,97,0.00,,,0.03,Wunderground v.1.15,2013-08-30 02:45:00,
2013-08-29 22:55:00,61.5,60.3,30.02,SSW,200,0.0,0.0,96,0.00,,,0.03,Wunderground v.1.15,2013-08-30 02:55:00,
2013-08-29 23:00:00,61.4,60.2,30.02,SSW,200,0.0,0.0,96,0.00,,,0.03,Wunderground v.1.15,2013-08-30 03:00:00,
2013-08-29 23:05:00,61.3,60.2,30.02,SSW,200,0.0,0.0,96,0.00,,,0.03,Wunderground v.1.15,2013-08-30 03:05:00,
2013-08-29 23:15:00,61.1,60.0,30.02,SSW,201,0.0,0.0,96,0.00,,,0.03,Wunderground v.1.15,2013-08-30 03:15:00,
2013-08-29 23:25:00,60.9,60.0,30.02,SSW,201,0.0,0.0,97,0.00,,,0.03,Wunderground v.1.15,2013-08-30 03:25:00,
2013-08-29 23:30:00,60.9,60.0,30.01,SSW,201,0.0,0.0,97,0.00,,,0.03,Wunderground v.1.15,2013-08-30 03:30:00,
2013-08-29 23:35:00,60.8,59.9,30.01,SSW,200,0.0,0.0,97,0.00,,,0.03,Wunderground v.1.15,2013-08-30 03:35:00,
2013-08-29 23:40:00,60.8,59.9,30.01,SSW,201,0.0,0.0,97,0.00,,,0.03,Wunderground v.1.15,2013-08-30 03:40:00,
2013-08-29 23:45:00,60.8,59.9,30.01,SSW,201,0.0,0.0,97,0.00,,,0.03,Wunderground v.1.15,2013-08-30 03:45:00,
2013-08-29 23:55:00,60.8,59.9,30.01,SSW,201,0.0,0.0,97,0.00,,,0.03,Wunderground v.1.15,2013-08-30 03:55:00,